Time,TemperatureF,DewpointF,PressureIn,WindDirection,WindDirectionDegrees,WindSpeedMPH,WindSpeedGustMPH,Humidity,HourlyPrecipIn,Conditions,Clouds,dailyrainin,SolarRadiationWatts/m^2,SoftwareType,DateUTC
2013-02-02 00:02:00,21.0,15.0,30.47,NNW,328,7.0,10.0,77,0.00,,,0.01,0.000000,,2013-02-02 07:02:00,
2013-02-02 00:11:00,21.0,15.0,30.47,NNW,328,7.0,10.0,77,0.00,,,0.01,0.000000,,2013-02-02 07:11:00,
2013-02-02 00:32:00,20.0,14.0,30.48,NNW,332,5.0,8.0,78,0.00,,,0.01,0.000000,,2013-02-02 07:32:00,
2013-02-02 00:42:00,20.0,14.0,30.48,NNW,332,5.0,8.0,78,0.00,,,0.01,0.000000,,2013-02-02 07:42:00,
2013-02-02 00:52:00,20.0,14.0,30.48,NNW,332,5.0,8.0,78,0.00,,,0.01,0.000000,,2013-02-02 07:52:00,
2013-02-02 01:01:00,20.0,14.0,30.48,NNW,332,5.0,8.0,78,0.00,,,0.01,0.000000,,2013-02-02 08:01:00,
2013-02-02 01:11:00,20.0,14.0,30.48,NNW,332,5.0,8.0,78,0.00,,,0.01,0.000000,,2013-02-02 08:11:00,
2013-02-02 02:32:00,19.0,14.0,30.52,NNW,336,4.0,6.0,81,-99.99,,,0.01,0.000000,,2013-02-02 09:32:00,
2013-02-02 02:42:00,19.0,14.0,30.52,NNW,336,4.0,6.0,81,-99.99,,,0.01,0.000000,,2013-02-02 09:42:00,
2013-02-02 02:52:00,19.0,14.0,30.52,NNW,336,4.0,6.0,81,-99.99,,,0.01,0.000000,,2013-02-02 09:52:00,
2013-02-02 03:01:00,19.0,14.0,30.52,NNW,336,4.0,6.0,81,-99.99,,,0.01,0.000000,,2013-02-02 10:01:00,
2013-02-02 03:11:00,19.0,14.0,30.52,NNW,336,4.0,6.0,81,-99.99,,,0.01,0.000000,,2013-02-02 10:11:00,
2013-02-02 03:32:00,20.0,14.0,30.51,NNW,341,2.0,7.0,77,0.00,,,0.01,0.000000,,2013-02-02 10:32:00,
2013-02-02 03:42:00,20.0,14.0,30.51,NNW,341,2.0,7.0,77,0.00,,,0.01,0.000000,,2013-02-02 10:42:00,
2013-02-02 03:52:00,20.0,14.0,30.51,NNW,341,2.0,7.0,77,0.00,,,0.01,0.000000,,2013-02-02 10:52:00,
2013-02-02 04:01:00,20.0,14.0,30.51,NNW,341,2.0,7.0,77,0.00,,,0.01,0.000000,,2013-02-02 11:01:00,
2013-02-02 04:11:00,20.0,14.0,30.51,NNW,341,2.0,7.0,77,0.00,,,0.01,0.000000,,2013-02-02 11:11:00,
2013-02-02 04:32:00,21.0,15.0,30.52,NNW,331,2.0,5.0,76,0.00,,,0.01,0.000000,,2013-02-02 11:32:00,
2013-02-02 04:42:00,21.0,15.0,30.52,NNW,331,2.0,5.0,76,0.00,,,0.01,0.000000,,2013-02-02 11:42:00,
2013-02-02 04:52:00,21.0,15.0,30.52,NNW,331,2.0,5.0,76,0.00,,,0.01,0.000000,,2013-02-02 11:52:00,
2013-02-02 05:01:00,21.0,15.0,30.52,NNW,331,2.0,5.0,76,0.00,,,0.01,0.000000,,2013-02-02 12:01:00,
2013-02-02 05:11:00,21.0,15.0,30.52,NNW,331,2.0,5.0,76,0.00,,,0.01,0.000000,,2013-02-02 12:11:00,
2013-02-02 05:32:00,20.0,13.0,30.53,NNW,346,4.0,6.0,74,0.00,,,0.01,0.000000,,2013-02-02 12:32:00,
2013-02-02 05:42:00,20.0,13.0,30.53,NNW,346,4.0,6.0,74,0.00,,,0.01,0.000000,,2013-02-02 12:42:00,
2013-02-02 05:52:00,20.0,13.0,30.53,NNW,346,4.0,6.0,74,0.00,,,0.01,0.000000,,2013-02-02 12:52:00,
2013-02-02 06:02:00,20.0,13.0,30.53,NNW,346,4.0,6.0,74,0.00,,,0.01,0.000000,,2013-02-02 13:02:00,
2013-02-02 06:11:00,20.0,13.0,30.53,NNW,346,4.0,6.0,74,0.00,,,0.01,0.000000,,2013-02-02 13:11:00,
2013-02-02 06:33:00,18.0,12.0,30.53,ENE,73,7.0,9.0,76,0.00,,,0.01,0.000000,,2013-02-02 13:33:00,
2013-02-02 06:42:00,18.0,12.0,30.53,ENE,73,7.0,9.0,76,0.00,,,0.01,0.000000,,2013-02-02 13:42:00,
2013-02-02 06:52:00,18.0,12.0,30.53,ENE,73,7.0,9.0,76,0.00,,,0.01,0.000000,,2013-02-02 13:52:00,
2013-02-02 07:02:00,18.0,12.0,30.53,ENE,73,7.0,9.0,76,0.00,,,0.01,0.000000,,2013-02-02 14:02:00,
2013-02-02 07:11:00,18.0,12.0,30.53,ENE,73,7.0,9.0,76,0.00,,,0.01,0.000000,,2013-02-02 14:11:00,
2013-02-02 07:33:00,18.0,11.0,30.55,East,89,5.0,10.0,72,0.00,,,0.01,0.000000,,2013-02-02 14:33:00,
2013-02-02 07:42:00,18.0,11.0,30.55,East,89,5.0,10.0,72,0.00,,,0.01,0.000000,,2013-02-02 14:42:00,
2013-02-02 07:52:00,18.0,11.0,30.55,East,89,5.0,10.0,72,0.00,,,0.01,0.000000,,2013-02-02 14:52:00,
2013-02-02 08:02:00,18.0,11.0,30.55,East,89,5.0,10.0,72,0.00,,,0.01,0.000000,,2013-02-02 15:02:00,
2013-02-02 08:11:00,18.0,11.0,30.55,East,89,5.0,10.0,72,0.00,,,0.01,0.000000,,2013-02-02 15:11:00,
2013-02-02 08:33:00,23.0,13.0,30.57,NNE,33,4.0,8.0,66,0.00,,,0.01,74.000000,,2013-02-02 15:33:00,
2013-02-02 08:42:00,23.0,13.0,30.57,NNE,33,4.0,8.0,66,0.00,,,0.01,74.000000,,2013-02-02 15:42:00,
2013-02-02 08:52:00,23.0,13.0,30.57,NNE,33,4.0,8.0,66,0.00,,,0.01,74.000000,,2013-02-02 15:52:00,
2013-02-02 09:02:00,23.0,13.0,30.57,NNE,33,4.0,8.0,66,0.00,,,0.01,74.000000,,2013-02-02 16:02:00,
2013-02-02 09:11:00,23.0,13.0,30.57,NNE,33,4.0,8.0,66,0.00,,,0.01,74.000000,,2013-02-02 16:11:00,
2013-02-02 09:42:00,28.0,14.0,30.58,ENE,63,3.0,9.0,54,-99.99,,,0.01,308.000000,,2013-02-02 16:42:00,
2013-02-02 09:52:00,28.0,14.0,30.58,ENE,63,3.0,9.0,54,-99.99,,,0.01,308.000000,,2013-02-02 16:52:00,
2013-02-02 10:02:00,28.0,14.0,30.58,ENE,63,3.0,9.0,54,-99.99,,,0.01,308.000000,,2013-02-02 17:02:00,
2013-02-02 10:11:00,28.0,14.0,30.58,ENE,63,3.0,9.0,54,-99.99,,,0.01,308.000000,,2013-02-02 17:11:00,
2013-02-02 10:33:00,37.0,13.0,30.58,North,352,2.0,4.0,37,0.00,,,0.01,525.000000,,2013-02-02 17:33:00,
2013-02-02 10:42:00,37.0,13.0,30.58,North,352,2.0,4.0,37,0.00,,,0.01,525.000000,,2013-02-02 17:42:00,
2013-02-02 10:52:00,37.0,13.0,30.58,North,352,2.0,4.0,37,0.00,,,0.01,525.000000,,2013-02-02 17:52:00,
2013-02-02 11:02:00,37.0,13.0,30.58,North,352,2.0,4.0,37,0.00,,,0.01,525.000000,,2013-02-02 18:02:00,
2013-02-02 11:32:00,39.0,12.0,30.61,NNW,335,3.0,5.0,32,-99.99,,,0.03,682.000000,,2013-02-02 18:32:00,
2013-02-02 11:42:00,39.0,12.0,30.61,NNW,335,3.0,5.0,32,-99.99,,,0.03,682.000000,,2013-02-02 18:42:00,
2013-02-02 11:52:00,39.0,12.0,30.61,NNW,335,3.0,5.0,32,-99.99,,,0.03,682.000000,,2013-02-02 18:52:00,
2013-02-02 12:01:00,39.0,12.0,30.61,NNW,335,3.0,5.0,32,-99.99,,,0.03,682.000000,,2013-02-02 19:01:00,
2013-02-02 12:11:00,39.0,12.0,30.61,NNW,335,3.0,5.0,32,-99.99,,,0.03,682.000000,,2013-02-02 19:11:00,
2013-02-02 12:32:00,39.0,12.0,30.58,NNW,331,6.0,8.0,32,0.02,,,0.05,781.000000,,2013-02-02 19:32:00,
2013-02-02 12:42:00,39.0,12.0,30.58,NNW,331,6.0,8.0,32,0.02,,,0.05,781.000000,,2013-02-02 19:42:00,
2013-02-02 12:52:00,39.0,12.0,30.58,NNW,331,6.0,8.0,32,0.02,,,0.05,781.000000,,2013-02-02 19:52:00,
2013-02-02 13:01:00,39.0,12.0,30.58,NNW,331,6.0,8.0,32,0.02,,,0.05,781.000000,,2013-02-02 20:01:00,
2013-02-02 13:11:00,39.0,12.0,30.58,NNW,331,6.0,8.0,32,0.02,,,0.05,781.000000,,2013-02-02 20:11:00,
2013-02-02 13:32:00,43.0,9.0,30.56,NW,318,2.0,7.0,24,0.02,,,0.07,802.000000,,2013-02-02 20:32:00,
2013-02-02 13:42:00,43.0,9.0,30.56,NW,318,2.0,7.0,24,0.02,,,0.07,802.000000,,2013-02-02 20:42:00,
2013-02-02 13:52:00,43.0,9.0,30.56,NW,318,2.0,7.0,24,0.02,,,0.07,802.000000,,2013-02-02 20:52:00,
2013-02-02 14:01:00,43.0,9.0,30.56,NW,318,2.0,7.0,24,0.02,,,0.07,802.000000,,2013-02-02 21:01:00,
2013-02-02 14:11:00,43.0,9.0,30.56,NW,318,2.0,7.0,24,0.02,,,0.07,802.000000,,2013-02-02 21:11:00,
2013-02-02 14:32:00,38.0,8.0,30.54,NW,325,5.0,8.0,28,0.03,,,0.10,698.000000,,2013-02-02 21:32:00,
2013-02-02 14:42:00,38.0,8.0,30.54,NW,325,5.0,8.0,28,0.03,,,0.10,698.000000,,2013-02-02 21:42:00,
2013-02-02 14:52:00,38.0,8.0,30.54,NW,325,5.0,8.0,28,0.03,,,0.10,698.000000,,2013-02-02 21:52:00,
2013-02-02 15:02:00,38.0,8.0,30.54,NW,325,5.0,8.0,28,0.03,,,0.10,698.000000,,2013-02-02 22:02:00,
2013-02-02 15:11:00,38.0,8.0,30.54,NW,325,5.0,8.0,28,0.03,,,0.10,698.000000,,2013-02-02 22:11:00,
2013-02-02 15:32:00,40.0,10.0,30.55,NW,326,3.0,7.0,29,0.02,,,0.11,531.000000,,2013-02-02 22:32:00,
2013-02-02 15:42:00,40.0,10.0,30.55,NW,326,3.0,7.0,29,0.02,,,0.11,531.000000,,2013-02-02 22:42:00,
2013-02-02 15:52:00,40.0,10.0,30.55,NW,326,3.0,7.0,29,0.02,,,0.11,531.000000,,2013-02-02 22:52:00,
2013-02-02 16:01:00,40.0,10.0,30.55,NW,326,3.0,7.0,29,0.02,,,0.11,531.000000,,2013-02-02 23:01:00,
2013-02-02 16:11:00,40.0,10.0,30.55,NW,326,3.0,7.0,29,0.02,,,0.11,531.000000,,2013-02-02 23:11:00,
2013-02-02 16:32:00,33.0,1.0,30.53,NNW,330,6.0,8.0,25,0.01,,,-99.99,366.000000,,2013-02-02 23:32:00,
2013-02-02 16:42:00,33.0,1.0,30.53,NNW,330,6.0,8.0,25,0.01,,,-99.99,366.000000,,2013-02-02 23:42:00,
2013-02-02 16:52:00,33.0,1.0,30.53,NNW,330,6.0,8.0,25,0.01,,,-99.99,366.000000,,2013-02-02 23:52:00,
2013-02-02 17:01:00,33.0,1.0,30.53,NNW,330,6.0,8.0,25,0.01,,,-99.99,366.000000,,2013-02-03 00:01:00,
2013-02-02 17:32:00,29.0,9.0,30.52,North,356,8.0,10.0,43,0.00,,,0.12,112.000000,,2013-02-03 00:32:00,
2013-02-02 17:42:00,29.0,9.0,30.52,North,356,8.0,10.0,43,0.00,,,0.12,112.000000,,2013-02-03 00:42:00,
2013-02-02 17:52:00,29.0,9.0,30.52,North,356,8.0,10.0,43,0.00,,,0.12,112.000000,,2013-02-03 00:52:00,
2013-02-02 18:02:00,29.0,9.0,30.52,North,356,8.0,10.0,43,0.00,,,0.12,112.000000,,2013-02-03 01:02:00,
2013-02-02 18:11:00,29.0,9.0,30.52,North,356,8.0,10.0,43,0.00,,,0.12,112.000000,,2013-02-03 01:11:00,
2013-02-02 18:32:00,27.0,12.0,30.53,North,355,4.0,10.0,52,0.00,,,0.12,6.000000,,2013-02-03 01:32:00,
2013-02-02 18:42:00,27.0,12.0,30.53,North,355,4.0,10.0,52,0.00,,,0.12,6.000000,,2013-02-03 01:42:00,
2013-02-02 18:52:00,27.0,12.0,30.53,North,355,4.0,10.0,52,0.00,,,0.12,6.000000,,2013-02-03 01:52:00,
2013-02-02 19:01:00,27.0,12.0,30.53,North,355,4.0,10.0,52,0.00,,,0.12,6.000000,,2013-02-03 02:01:00,
2013-02-02 19:11:00,27.0,12.0,30.53,North,355,4.0,10.0,52,0.00,,,0.12,6.000000,,2013-02-03 02:11:00,
2013-02-02 19:42:00,28.0,5.0,30.53,NNE,17,0.0,5.0,37,0.00,,,0.12,0.000000,,2013-02-03 02:42:00,
2013-02-02 19:52:00,28.0,5.0,30.53,NNE,17,0.0,5.0,37,0.00,,,0.12,0.000000,,2013-02-03 02:52:00,
2013-02-02 20:02:00,28.0,5.0,30.53,NNE,17,0.0,5.0,37,0.00,,,0.12,0.000000,,2013-02-03 03:02:00,
2013-02-02 20:32:00,26.0,12.0,30.53,East,87,10.0,13.0,56,0.00,,,0.12,0.000000,,2013-02-03 03:32:00,
2013-02-02 20:42:00,26.0,12.0,30.53,East,87,10.0,13.0,56,0.00,,,0.12,0.000000,,2013-02-03 03:42:00,
2013-02-02 20:52:00,26.0,12.0,30.53,East,87,10.0,13.0,56,0.00,,,0.12,0.000000,,2013-02-03 03:52:00,
2013-02-02 21:01:00,26.0,12.0,30.53,East,87,10.0,13.0,56,0.00,,,0.12,0.000000,,2013-02-03 04:01:00,
2013-02-02 21:11:00,26.0,12.0,30.53,East,87,10.0,13.0,56,0.00,,,0.12,0.000000,,2013-02-03 04:11:00,
2013-02-02 21:32:00,26.0,10.0,30.51,ESE,102,11.0,14.0,51,0.00,,,0.12,0.000000,,2013-02-03 04:32:00,
2013-02-02 21:42:00,26.0,10.0,30.51,ESE,102,11.0,14.0,51,0.00,,,0.12,0.000000,,2013-02-03 04:42:00,
2013-02-02 21:52:00,26.0,10.0,30.51,ESE,102,11.0,14.0,51,0.00,,,0.12,0.000000,,2013-02-03 04:52:00,
2013-02-02 22:03:00,26.0,10.0,30.51,ESE,102,11.0,14.0,51,0.00,,,0.12,0.000000,,2013-02-03 05:03:00,
2013-02-02 22:11:00,26.0,10.0,30.51,ESE,102,11.0,14.0,51,0.00,,,0.12,0.000000,,2013-02-03 05:11:00,
2013-02-02 22:32:00,27.0,9.0,30.50,ESE,103,15.0,17.0,46,0.00,,,0.12,0.000000,,2013-02-03 05:32:00,
2013-02-02 22:42:00,27.0,9.0,30.50,ESE,103,15.0,17.0,46,0.00,,,0.12,0.000000,,2013-02-03 05:42:00,
2013-02-02 22:52:00,27.0,9.0,30.50,ESE,103,15.0,17.0,46,0.00,,,0.12,0.000000,,2013-02-03 05:52:00,
2013-02-02 23:02:00,27.0,9.0,30.50,ESE,103,15.0,17.0,46,0.00,,,0.12,0.000000,,2013-02-03 06:02:00,
2013-02-02 23:11:00,27.0,9.0,30.50,ESE,103,15.0,17.0,46,0.00,,,0.12,0.000000,,2013-02-03 06:11:00,
2013-02-02 23:32:00,25.0,8.0,30.50,East,97,11.0,17.0,47,0.00,,,0.12,0.000000,,2013-02-03 06:32:00,
2013-02-02 23:42:00,25.0,8.0,30.50,East,97,11.0,17.0,47,0.00,,,0.12,0.000000,,2013-02-03 06:42:00,
2013-02-02 23:52:00,25.0,8.0,30.50,East,97,11.0,17.0,47,0.00,,,0.12,0.000000,,2013-02-03 06:52:00,